{"data":{"norad_id":87159,"intl_designator":"","name":"UNKNOWN","alt_names":[],"object_type":"UNKNOWN","status":"UNKNOWN","operator":null,"country":null,"launch_date":null,"launch_site_code":null,"launch_vehicle":null,"mission":null,"orbit_class":"UNKNOWN","rcs_meters":null,"size_class":null,"mass_kg":null,"dimensions":null,"purposes":[],"wikipedia_slug":null,"has_3d_model":false,"image_url":null,"decayed_at":null,"tle_current":{"epoch":"2026-05-24T01:27:48.285792Z","epoch_age_seconds":156254,"freshness":"FRESH","line1":"1 87159U          26144.06097553  .00001006  00000+0  11589-2 0  9994","line2":"2 87159  90.3511  75.2586 0103972 133.3162 227.6725 13.66478482578858","mean_motion":13.66478482,"eccentricity":0.0103972,"inclination_deg":90.3511,"raan_deg":75.2586,"arg_perigee_deg":133.3162,"mean_anomaly_deg":227.6725,"bstar":0.0011589,"rev_number":57885,"period_min":105.38036412344,"perigee_km":935.40161187853,"apogee_km":1089.0800850102,"semimajor_km":7390.3778484444,"source":"CELESTRAK","updated_at":"2026-05-25T13:38:11.436918Z"}}}